Time,TemperatureF,DewpointF,PressureIn,WindDirection,WindDirectionDegrees,WindSpeedMPH,WindSpeedGustMPH,Humidity,HourlyPrecipIn,Conditions,Clouds,dailyrainin,SolarRadiationWatts/m^2,SoftwareType,DateUTC
2013-03-06 00:00:00,25.0,18.0,-100.00,NE,45,3.0,-999.0,77,-99.99,,,-99.99,0.000000,,2013-03-06 05:00:00,
2013-03-06 00:42:00,25.0,18.0,-100.00,NE,45,3.0,-999.0,77,-99.99,,,-99.99,0.000000,,2013-03-06 05:42:00,
2013-03-06 00:52:00,25.0,18.0,-100.00,NE,45,3.0,-999.0,77,-99.99,,,-99.99,0.000000,,2013-03-06 05:52:00,
2013-03-06 01:00:00,25.0,19.0,-100.00,NE,45,3.0,-999.0,75,-99.99,,,-99.99,0.000000,,2013-03-06 06:00:00,
2013-03-06 01:32:00,25.0,19.0,-100.00,NE,45,3.0,-999.0,75,-99.99,,,-99.99,0.000000,,2013-03-06 06:32:00,
2013-03-06 01:42:00,25.0,19.0,-100.00,NE,45,3.0,-999.0,75,-99.99,,,-99.99,0.000000,,2013-03-06 06:42:00,
2013-03-06 01:52:00,25.0,19.0,-100.00,NE,45,3.0,-999.0,75,-99.99,,,-99.99,0.000000,,2013-03-06 06:52:00,
2013-03-06 02:00:00,26.0,20.0,-100.00,NE,45,4.0,-999.0,76,-99.99,,,-99.99,0.000000,,2013-03-06 07:00:00,
2013-03-06 02:42:00,26.0,20.0,-100.00,NE,45,4.0,-999.0,76,-99.99,,,-99.99,0.000000,,2013-03-06 07:42:00,
2013-03-06 02:52:00,26.0,20.0,-100.00,NE,45,4.0,-999.0,76,-99.99,,,-99.99,0.000000,,2013-03-06 07:52:00,
2013-03-06 03:00:00,27.0,22.0,-100.00,NE,45,6.0,-999.0,77,-99.99,,,-99.99,0.000000,,2013-03-06 08:00:00,
2013-03-06 03:42:00,27.0,22.0,-100.00,NE,45,6.0,-999.0,77,-99.99,,,-99.99,0.000000,,2013-03-06 08:42:00,
2013-03-06 03:52:00,27.0,22.0,-100.00,NE,45,6.0,-999.0,77,-99.99,,,-99.99,0.000000,,2013-03-06 08:52:00,
2013-03-06 04:00:00,28.0,23.0,-100.00,NE,45,6.0,-999.0,80,-99.99,,,-99.99,0.000000,,2013-03-06 09:00:00,
2013-03-06 04:42:00,28.0,23.0,-100.00,NE,45,6.0,-999.0,80,-99.99,,,-99.99,0.000000,,2013-03-06 09:42:00,
2013-03-06 04:52:00,28.0,23.0,-100.00,NE,45,6.0,-999.0,80,-99.99,,,-99.99,0.000000,,2013-03-06 09:52:00,
2013-03-06 05:00:00,28.0,23.0,-100.00,NE,45,7.0,-999.0,82,-99.99,,,-99.99,0.000000,,2013-03-06 10:00:00,
2013-03-06 05:42:00,28.0,23.0,-100.00,NE,45,7.0,-999.0,82,-99.99,,,-99.99,0.000000,,2013-03-06 10:42:00,
2013-03-06 05:52:00,28.0,23.0,-100.00,NE,45,7.0,-999.0,82,-99.99,,,-99.99,0.000000,,2013-03-06 10:52:00,
2013-03-06 06:00:00,28.0,23.0,-100.00,ENE,67,7.0,-999.0,82,-99.99,,,-99.99,0.000000,,2013-03-06 11:00:00,
2013-03-06 06:43:00,28.0,23.0,-100.00,ENE,67,7.0,-999.0,82,-99.99,,,-99.99,0.000000,,2013-03-06 11:43:00,
2013-03-06 06:52:00,28.0,23.0,-100.00,ENE,67,7.0,-999.0,82,-99.99,,,-99.99,0.000000,,2013-03-06 11:52:00,
2013-03-06 07:00:00,28.0,24.0,-100.00,NE,45,4.0,-999.0,83,-99.99,,,-99.99,0.000000,,2013-03-06 12:00:00,
2013-03-06 07:43:00,28.0,24.0,-100.00,NE,45,4.0,-999.0,83,-99.99,,,-99.99,0.000000,,2013-03-06 12:43:00,
2013-03-06 07:53:00,28.0,24.0,-100.00,NE,45,4.0,-999.0,83,-99.99,,,-99.99,0.000000,,2013-03-06 12:53:00,
2013-03-06 08:00:00,28.0,24.0,-100.00,NE,45,2.0,-999.0,83,-99.99,,,-99.99,22.040001,,2013-03-06 13:00:00,
2013-03-06 08:42:00,28.0,24.0,-100.00,NE,45,2.0,-999.0,83,-99.99,,,-99.99,22.040001,,2013-03-06 13:42:00,
2013-03-06 08:52:00,28.0,24.0,-100.00,NE,45,2.0,-999.0,83,-99.99,,,-99.99,22.040001,,2013-03-06 13:52:00,
2013-03-06 09:00:00,31.0,24.0,-100.00,ENE,67,2.0,-999.0,75,-99.99,,,-99.99,146.160004,,2013-03-06 14:00:00,
2013-03-06 09:42:00,31.0,24.0,-100.00,ENE,67,2.0,-999.0,75,-99.99,,,-99.99,146.160004,,2013-03-06 14:42:00,
2013-03-06 09:53:00,31.0,24.0,-100.00,ENE,67,2.0,-999.0,75,-99.99,,,-99.99,146.160004,,2013-03-06 14:53:00,
2013-03-06 10:00:00,37.0,25.0,-100.00,ENE,67,2.0,-999.0,61,-99.99,,,-99.99,325.959991,,2013-03-06 15:00:00,
2013-03-06 10:42:00,37.0,25.0,-100.00,ENE,67,2.0,-999.0,61,-99.99,,,-99.99,325.959991,,2013-03-06 15:42:00,
2013-03-06 10:52:00,37.0,25.0,-100.00,ENE,67,2.0,-999.0,61,-99.99,,,-99.99,325.959991,,2013-03-06 15:52:00,
2013-03-06 11:00:00,39.0,26.0,-100.00,ENE,67,2.0,-999.0,58,-99.99,,,-99.99,400.200012,,2013-03-06 16:00:00,
2013-03-06 11:42:00,39.0,26.0,-100.00,ENE,67,2.0,-999.0,58,-99.99,,,-99.99,400.200012,,2013-03-06 16:42:00,
2013-03-06 11:52:00,39.0,26.0,-100.00,ENE,67,2.0,-999.0,58,-99.99,,,-99.99,400.200012,,2013-03-06 16:52:00,
2013-03-06 12:00:00,38.0,26.0,-100.00,ENE,67,1.0,-999.0,60,-99.99,,,-99.99,499.959991,,2013-03-06 17:00:00,
2013-03-06 12:42:00,38.0,26.0,-100.00,ENE,67,1.0,-999.0,60,-99.99,,,-99.99,499.959991,,2013-03-06 17:42:00,
2013-03-06 12:53:00,38.0,26.0,-100.00,ENE,67,1.0,-999.0,60,-99.99,,,-99.99,499.959991,,2013-03-06 17:53:00,
2013-03-06 13:00:00,42.0,26.0,-100.00,SE,135,1.0,-999.0,52,-99.99,,,-99.99,493.000000,,2013-03-06 18:00:00,
2013-03-06 13:42:00,42.0,26.0,-100.00,SE,135,1.0,-999.0,52,-99.99,,,-99.99,493.000000,,2013-03-06 18:42:00,
2013-03-06 13:53:00,42.0,26.0,-100.00,SE,135,1.0,-999.0,52,-99.99,,,-99.99,493.000000,,2013-03-06 18:53:00,
2013-03-06 14:00:00,40.0,27.0,-100.00,SW,225,3.0,-999.0,57,-99.99,,,-99.99,470.959991,,2013-03-06 19:00:00,
2013-03-06 14:43:00,40.0,27.0,-100.00,SW,225,3.0,-999.0,57,-99.99,,,-99.99,470.959991,,2013-03-06 19:43:00,
2013-03-06 14:53:00,40.0,27.0,-100.00,SW,225,3.0,-999.0,57,-99.99,,,-99.99,470.959991,,2013-03-06 19:53:00,
2013-03-06 15:00:00,38.0,26.0,-100.00,WSW,247,5.0,-999.0,63,-99.99,,,-99.99,356.119995,,2013-03-06 20:00:00,
2013-03-06 15:43:00,38.0,26.0,-100.00,WSW,247,5.0,-999.0,63,-99.99,,,-99.99,356.119995,,2013-03-06 20:43:00,
2013-03-06 15:53:00,38.0,26.0,-100.00,WSW,247,5.0,-999.0,63,-99.99,,,-99.99,356.119995,,2013-03-06 20:53:00,
2013-03-06 16:00:00,35.0,26.0,-100.00,WSW,247,4.0,-999.0,68,-99.99,,,-99.99,143.839996,,2013-03-06 21:00:00,
2013-03-06 16:42:00,35.0,26.0,-100.00,WSW,247,4.0,-999.0,68,-99.99,,,-99.99,143.839996,,2013-03-06 21:42:00,
2013-03-06 16:52:00,35.0,26.0,-100.00,WSW,247,4.0,-999.0,68,-99.99,,,-99.99,143.839996,,2013-03-06 21:52:00,
2013-03-06 17:00:00,34.0,26.0,-100.00,WSW,247,2.0,-999.0,71,-99.99,,,-99.99,98.599998,,2013-03-06 22:00:00,
2013-03-06 17:42:00,34.0,26.0,-100.00,WSW,247,2.0,-999.0,71,-99.99,,,-99.99,98.599998,,2013-03-06 22:42:00,
2013-03-06 17:52:00,34.0,26.0,-100.00,WSW,247,2.0,-999.0,71,-99.99,,,-99.99,98.599998,,2013-03-06 22:52:00,
2013-03-06 18:00:00,33.0,26.0,-100.00,SSE,157,5.0,-999.0,74,-99.99,,,-99.99,45.240002,,2013-03-06 23:00:00,
2013-03-06 18:42:00,33.0,26.0,-100.00,SSE,157,5.0,-999.0,74,-99.99,,,-99.99,45.240002,,2013-03-06 23:42:00,
2013-03-06 18:52:00,33.0,26.0,-100.00,SSE,157,5.0,-999.0,74,-99.99,,,-99.99,45.240002,,2013-03-06 23:52:00,
2013-03-06 19:00:00,32.0,26.0,-100.00,WSW,247,1.0,-999.0,79,-99.99,,,-99.99,8.120000,,2013-03-07 00:00:00,
2013-03-06 19:32:00,32.0,26.0,-100.00,WSW,247,1.0,-999.0,79,-99.99,,,-99.99,8.120000,,2013-03-07 00:32:00,
2013-03-06 19:42:00,32.0,26.0,-100.00,WSW,247,1.0,-999.0,79,-99.99,,,-99.99,8.120000,,2013-03-07 00:42:00,
2013-03-06 19:52:00,32.0,26.0,-100.00,WSW,247,1.0,-999.0,79,-99.99,,,-99.99,8.120000,,2013-03-07 00:52:00,
2013-03-06 20:00:00,31.0,28.0,-100.00,SW,225,2.0,-999.0,87,-99.99,,,-99.99,0.000000,,2013-03-07 01:00:00,
2013-03-06 20:42:00,31.0,28.0,-100.00,SW,225,2.0,-999.0,87,-99.99,,,-99.99,0.000000,,2013-03-07 01:42:00,
2013-03-06 20:52:00,31.0,28.0,-100.00,SW,225,2.0,-999.0,87,-99.99,,,-99.99,0.000000,,2013-03-07 01:52:00,
2013-03-06 21:00:00,30.0,28.0,-100.00,WSW,247,3.0,-999.0,91,-99.99,,,-99.99,0.000000,,2013-03-07 02:00:00,
2013-03-06 22:00:00,29.0,27.0,-100.00,WSW,247,6.0,-999.0,92,-99.99,,,-99.99,0.000000,,2013-03-07 03:00:00,
2013-03-06 22:42:00,29.0,27.0,-100.00,WSW,247,6.0,-999.0,92,-99.99,,,-99.99,0.000000,,2013-03-07 03:42:00,
2013-03-06 22:52:00,29.0,27.0,-100.00,WSW,247,6.0,-999.0,92,-99.99,,,-99.99,0.000000,,2013-03-07 03:52:00,
2013-03-06 23:00:00,28.0,25.0,-100.00,SSW,202,7.0,-999.0,90,-99.99,,,-99.99,0.000000,,2013-03-07 04:00:00,
2013-03-06 23:42:00,28.0,25.0,-100.00,SSW,202,7.0,-999.0,90,-99.99,,,-99.99,0.000000,,2013-03-07 04:42:00,
2013-03-06 23:52:00,28.0,25.0,-100.00,SSW,202,7.0,-999.0,90,-99.99,,,-99.99,0.000000,,2013-03-07 04:52:00,